Weather observations for the past three days for
St. Inigoes, Webster Field, Naval Electronic Systems Engineering Activity
Imperial (Metric)
Date Time (edt) Wind (mph) Vis. (mi.) Weather Sky Cond. Temperature (ºF) Relative Humidity Wind Chill (°F) Heat Index (°F) Pressure Precipitation (in)
Air Dwpt 6 hour altimeter (in) sea level (mb) 1 hr 3 hr 6 hr
Max. Min.
22 18:53 S 7 10.00 Mostly Cloudy FEW012 SCT026 BKN050 81 78.1 91% 89 29.96 1014.4
22 17:53 S 7 10.00 Light Rain SCT015 BKN022 BKN049 80.1 75.9 87% 85 29.95 1014.1
22 16:53 S 8 10.00 Overcast OVC016 80.1 77 90% 86 29.96 1014.5
22 15:53 S 10 10.00 Overcast BKN015 BKN021 OVC030 81 77 88% 88 29.97 1014.9
22 14:53 SE 6 10.00 Partly Cloudy FEW011 SCT020 SCT110 79 77 94% 83 29.99 1015.6
22 13:53 Calm 10.00 Mostly Cloudy SCT016 BKN024 BKN040 78.1 73.9 80.1 75 87% 81 30.02 1016.5 0.01 0.05
22 12:53 SE 5 7.00 Light Rain FEW009 SCT015 OVC055 75.9 73.9 94% 75 30.04 1017.1 0.04
22 11:53 S 9 G 18 8.00 Light Rain FEW043 SCT060 OVC110 77 73.9 90% 78 30.05 1017.5
22 10:53 S 6 10.00 Mostly Cloudy FEW049 BKN110 78.1 73 85% 81 30.05 1017.5
22 09:53 S 6 10.00 Mostly Cloudy BKN010 BKN110 79 77 94% 83 30.03 1016.9
22 07:53 S 3 10.00 A Few Clouds FEW013 78.1 77 78.1 73.9 97% 81 30.05 1017.6
22 06:53 Calm 8.00 Fair CLR 75 75 100% 72 30.04 1017.1
22 05:53 Calm 10.00 Fair CLR 75.9 75 97% 75 30.03 1016.9
22 04:53 S 5 10.00 Fair CLR 77 75 94% 78 30.03 1016.8
22 03:53 S 5 10.00 Fair CLR 75.9 75 97% 75 30.03 1016.8
22 02:53 S 5 10.00 Fair CLR 75.9 73.9 94% 75 30.04 1017.1
22 01:53 S 6 10.00 Fair CLR 77 75 81 77 94% 78 30.05 1017.5
22 00:53 S 8 10.00 Fair CLR 77 75 94% 78 30.06 1017.9
21 23:53 S 8 10.00 Partly Cloudy SCT012 78.1 75.9 93% 81 30.06 1017.7
21 22:53 S 6 10.00 Fair CLR 79 75 88% 83 30.06 1018.0
21 21:53 S 5 10.00 Fair CLR 79 75 88% 83 30.05 1017.5
21 20:53 SE 5 10.00 Fair CLR 79 73.9 85% 83 30.03 1016.8
21 19:53 SE 5 10.00 Fair CLR 81 73.9 84 81 79% 86 30.01 1016.2
21 18:53 SE 8 10.00 Fair CLR 82 73.9 77% 88 30.01 1016.0
21 17:53 SE 8 10.00 Fair CLR 84 75 74% 92 30.01 1016.0
21 16:53 SE 7 10.00 Fair CLR 84 75 74% 92 30.02 1016.3
21 15:53 S 7 10.00 Fair CLR 82.9 73.9 74% 89 30.02 1016.6
21 14:53 Vrbl 6 10.00 Fair CLR 84 75 74% 92 30.04 1017.1
21 13:53 S 7 10.00 Fair CLR 82.9 75 84 75 77% 90 30.05 1017.3
21 12:53 S 6 10.00 Fair CLR 82 75 79% 89 30.06 1017.7
21 11:53 SW 6 10.00 Mostly Cloudy SCT020 BKN039 81 73.9 79% 86 30.06 1017.7
21 10:53 Vrbl 3 10.00 Mostly Cloudy FEW019 SCT027 BKN032 81 75 82% 87 30.05 1017.6
21 09:53 W 3 10.00 Partly Cloudy SCT017 78.1 73 85% 81 30.04 1017.3
21 08:53 Calm 10.00 Fair CLR 78.1 73 85% 81 30.05 1017.5
21 07:53 Calm 10.00 Fair CLR 75 72 75.9 70 90% 74 30.04 1017.2
21 06:53 Calm 10.00 Mostly Cloudy BKN021 73 71.1 94% 30.03 1016.9
21 05:53 Calm 9.00 Fair CLR 72 71.1 97% 30.02 1016.6
21 04:53 Calm 2.00 Fog/Mist CLR 70 70 100% 30 1015.8
21 03:53 Calm 9.00 Fair CLR 71.1 71.1 100% 30 1015.8
21 02:53 NW 5 10.00 A Few Clouds FEW028 73 71.1 94% 30 1015.7
21 01:53 Vrbl 7 10.00 Overcast OVC024 73 72 75 72 96% 30.02 1016.5
21 00:53 Vrbl 3 10.00 Overcast OVC021 75 73.9 96% 73 30.01 1016.1
20 23:53 Calm 10.00 Overcast FEW012 OVC024 73.9 73 97% 30 1015.8
20 22:53 Calm 10.00 Overcast BKN014 OVC024 73.9 73 97% 30.02 1016.5
20 21:53 N 3 9.00 Overcast BKN013 BKN022 OVC027 73 73 100% 30.03 1016.9
20 20:53 NW 3 10.00 Overcast BKN014 OVC110 73 72 96% 30.03 1017.0
20 19:53 Calm 10.00 A Few Clouds FEW110 73 72 79 72 96% 30.03 1016.7 0.16
20 18:53 E 7 10.00 Overcast FEW065 BKN090 OVC110 72 69.1 91% 30 1015.7 0.01
20 17:53 E 8 6.00 Light Rain Fog/Mist OVC100 72 70 94% 30.03 1016.8 0.04
20 16:53 E 3 10.00 Overcast SCT029 OVC090 73.9 72 94% 30.06 1017.9 0.03 0.11
20 15:53 NE 3 2.50 Heavy Rain Fog/Mist SCT065 OVC090 73.9 72 94% 30.06 1017.9 0.08
20 14:53 SE 8 9.00 Light Rain FEW019 SCT050 OVC100 75.9 72 88% 76 30.06 1017.8
20 13:53 SE 10 10.00 Overcast FEW021 BKN070 OVC110 79 73 81 78.1 82% 82 30.07 1018.2
20 12:53 E 9 G 17 10.00 Partly Cloudy SCT020 SCT028 81 73.9 79% 86 30.08 1018.4
20 11:53 SE 10 G 16 10.00 Partly Cloudy FEW017 SCT120 79 73 82% 82 30.09 1018.7
20 10:53 SE 9 10.00 A Few Clouds FEW018 80.1 75.9 87% 85 30.09 1018.9
20 09:53 SE 6 10.00 Mostly Cloudy BKN015 BKN022 79 75.9 90% 83 30.09 1018.9
20 08:53 E 6 10.00 Mostly Cloudy SCT016 BKN024 BKN030 79 75.9 90% 83 30.1 1019.2
20 07:53 E 6 10.00 Fair CLR 78.1 75 78.1 71.1 90% 81 30.1 1019.1
20 06:53 Calm 8.00 Fair CLR 73 73 100% 30.09 1018.7
20 05:53 Calm 9.00 Fair CLR 72 72 100% 30.09 1018.9
20 04:53 Calm 9.00 Fair CLR 72 72 100% 30.09 1018.8
20 03:53 Calm 10.00 Fair CLR 75 73 94% 73 30.09 1018.8
20 02:53 Calm 10.00 Fair CLR 73.9 73 97% 30.09 1018.9
20 01:53 Calm 10.00 Fair CLR 72 71.1 80.1 72 97% 30.1 1019.1
20 00:53 Calm 10.00 Fair CLR 73.9 72 94% 30.11 1019.6
19 23:53 Calm 10.00 Fair CLR 75 71.1 88% 75 30.12 1020.0
19 22:53 SE 3 10.00 Fair CLR 75.9 70 82% 77 30.13 1020.0
19 21:53 SE 3 10.00 Fair CLR 77 69.1 77% 79 30.13 1020.1
19 20:53 Calm 10.00 A Few Clouds FEW002 77 69.1 77% 79 30.1 1019.3
19 19:53 SE 3 10.00 Fair CLR 80.1 70 84.9 79 71% 83 30.09 1018.9
Date Time (edt) Wind (mph) Vis. (mi.) Weather Sky Cond. Air Dwpt Max. Min. Relative Humidity Wind Chill (°F) Heat Index (°F) altimeter (in) sea level (mb) 1 hr 3 hr 6 hr
6 hour
Temperature (ºF) Pressure Precipitation (in)